Location: Zagreb
(45.8000°N, 16.0000°E)
Time: 15:24:37
(UTC+02:00)

Transit 2A - Pass Details

Date: 19 August 2022
Orbit: 601 x 956 km, 66.7° (Epoch: 25 September)

Event Time Altitude Azimuth Distance (km) Brightness Sun altitude
Rises 19:54:44 0° 320° (NW) 2,866 10.1 -0.3°
Reaches altitude 10° 19:57:03 10° 312° (NW) 1,973 9.5 -0.7°
Maximum altitude 20:01:07 38° 245° (WSW) 967 7.1 -1.4°
Drops below altitude 10° 20:05:25 10° 177° (S) 2,077 8.0 -2.1°
Sets 20:07:55 0° 170° (S) 3,038 8.8 -2.5°
